Regional Weather Roundup
Issued by NWS Wilmington, NC

Home | Current Version | Previous Version | Text Only | Print | Product List | Glossary On
Versions: 1 2 3 4 5 6 7 8 9 10 11 12 13 14 15 16 17 18 19 20 21 22 23 24 25 26 27 28 29 30 31 32 33 34 35 36 37 38 39 40 41 42 43 44 45 46 47 48 49 50
000
ASUS42 KILM 272013
RWRILM
RWRILM
REGIONAL HOURLY WEATHER ROUNDUP
NATIONAL WEATHER SERVICE WILMINGTON NC
400 PM EDT SAT MAY 27 2017

NOTE: "FAIR" INDICATES FEW OR NO CLOUDS BELOW 12,000 FEET WITH NO
SIGNIFICANT WEATHER AND/OR OBSTRUCTIONS TO VISIBILITY.

...............WFO WILMINGTON COUNTY WARNING AREA...............

......COASTAL NC AND SC COUNTIES......

CITY           SKY/WX    TMP DP  RH WIND       PRES   REMARKS
WILMINGTON     MOSUNNY   87  68  52 SW13      29.90F HX  90
N MYRTLE BEACH SUNNY     83  70  64 SW20G26   29.92F
MYRTLE BEACH   MOSUNNY   90  66  45 W9        29.93F HX  92

......INLAND NC AND SC COUNTIES.......

CITY           SKY/WX    TMP DP  RH WIND       PRES   REMARKS
LUMBERTON      MOSUNNY   90  65  43 SW15      29.89F HX  92
ELIZABETHTOWN  MOSUNNY   90  64  41 W9G18     29.90F HX  91
WHITEVILLE     MOSUNNY   88  66  47 SW7       29.90F HX  90
FLORENCE       MOSUNNY   89  65  44 SW15G22   29.92F HX  91
DARLINGTON     PTSUNNY   88  66  48 W16G23    29.92F HX  90
KINGSTREE      FAIR      88  61  40 SW13      29.93F
HARTSVILLE     FAIR      88  63  42 W10G22    29.92F
BENNETTSVILLE  FAIR      93  63  36 W12G18    29.90F HX  94
CONWAY         FAIR      88  68  51 SW7       29.93F HX  91
GEORGETOWN     FAIR      88  63  42 W13G18    29.94F
MARION         FAIR      88  66  48 SW12G22   29.91F HX  90

....................REST OF NORTH CAROLINA......................

.........EASTERN NC.........

CITY           SKY/WX    TMP DP  RH WIND       PRES   REMARKS
CAPE HATTERAS  SUNNY     82  69  64 SW9G18    29.92F
JACKSONVILLE   MOSUNNY   90  66  45 SW7       29.89F HX  92
MOREHEAD CITY  SUNNY     80  70  71 SW16      29.91F
KENANSVILLE    MOSUNNY   88  63  42 W7        29.89F
NEW BERN       PTSUNNY   88  65  46 SW7       29.89F HX  90
ELIZABETH CITY SUNNY     86  66  51 S9        29.87F

.........CENTRAL NC.........

CITY           SKY/WX    TMP DP  RH WIND       PRES   REMARKS
RALEIGH DURHAM PTSUNNY   87  67  51 SW15      29.89F HX  90
ROCKY MOUNT    MOSUNNY   87  66  49 S9        29.88F
ROANOKE RAPIDS NOT AVBL
FAYETTEVILLE   PTSUNNY   91  64  40 SW12      29.89F HX  92
HOFFMAN        MOSUNNY   88  65  45 W12       29.90F HX  90

.........WESTERN NC.........

CITY           SKY/WX    TMP DP  RH WIND       PRES   REMARKS
CHARLOTTE      PTSUNNY   84  64  50 SW7       29.90F
GREENSBORO     PTSUNNY   86  66  51 W10       29.89F
HICKORY        NOT AVBL
BOONE          NOT AVBL
ASHEVILLE      NOT AVBL

.....................REST OF SOUTH CAROLINA.....................

.........EASTERN SC.........

CITY           SKY/WX    TMP DP  RH WIND       PRES   REMARKS
CHARLESTON     MOSUNNY   91  60  35 W16G22    29.95F HX  90
BEAUFORT MCAS  SUNNY     92  65  40 SW14      29.97F HX  94
HILTON HEAD    SUNNY     86  70  58 S12       29.99F HX  90

.........CENTRAL SC.........

CITY           SKY/WX    TMP DP  RH WIND       PRES   REMARKS
COLUMBIA       MOSUNNY   91  60  35 W14G22    29.92F HX  90
ORANGEBURG     SUNNY     90  60  36 W13G24    29.95F
SUMTER SHAW    SUNNY     90  64  41 SW14      29.91F HX  91

.........WESTERN SC.........

CITY           SKY/WX    TMP DP  RH WIND       PRES   REMARKS
GREENVILLE     NOT AVBL
ROCK HILL      PTSUNNY   84  65  52 SW10      29.92F
ANDERSON       SUNNY     86  64  47 SW16      29.95F
CLEMSON        NOT AVBL
GREENWOOD      MOSUNNY   85  63  47 SW14      29.96F


...................COASTAL AND OFFSHORE REPORTS..................

................LOCAL PIERS AND NC RESERVE................


STATION/POSITION TIME  SKY/WX   TEMP    WIND        PRES    VSBY
                                AIR SEA DIR/SP/G
                 (UTC)          (F)     (DEG/KT/KT) (MB)    (MI)
JOHNY MRCER PIER 1948            78 77  190/ 18/ 20 1011.8F
NC RESRV MASNBRO 1845            85     220/  6     1014.0
OCEAN CREST PIER NOT AVBL
SPRINGMAID  PIER 1948                               1012.5F


................COASTAL AND OFFSHORE BUOYS................


STATION/POSITION TIME  SKY/WX   TEMP    WIND        PRES    VSBY
                                AIR SEA DIR/SP/G
                 (UTC)          (F)     (DEG/KT/KT) (MB)    (MI)
DIMNDSHOAL 41025 1950            77 77  230/ 16/ 19 1013.2F
WVE H/P(F/S)=  3/ 8 SWL H/P/D(F/S/D)=  2/150/ 8

CAPE LOOKOUT     2000            78     210/ 12/ 15 1012.9F
ONSLOW BAY 41036 NOT AVBL
ONSLOW BAY 41064 1908            77 78  230/ 16/ 19 1014.0F
ONSLOW BAY 41159 1943               77                N/A
WVE H/P(F/S)=  4/ 5

MASNBO INL 41110 1959               75                N/A
WVE H/P(F/S)=  3/ 4

WILM HARBR 41108 1947               76                N/A
WVE H/P(F/S)=  4/ 5

27SE WRITB 41037 1908            76 76  210/ 17/ 23 1013.7S
FRYING PAN 41013 2000            76 76  220/ 16/ 19 1014.0
SUNST NRSH 41024 1908            76 75  220/ 14/ 17 1013.7F
CAPRS NRSH 41029 1908            82 77  220/ 16/ 21 1015.0F
EDISTO     41004 1950            76 75  220/ 12/ 14 1015.1F
WVE H/P(F/S)=  3/ 4 SWL H/P/D(F/S/D)=  2/140/ 8



..........OFFSHORE BUOYS BEYOND 100 NM OFFSHORE...........
.....IN A TRIANGLE---HAT TO BERMUDA TO BAHAMAS TO HAT.....


STATION/POSITION TIME  SKY/WX   TEMP    WIND        PRES    VSBY
                                AIR SEA DIR/SP/G
                 (UTC)          (F)     (DEG/KT/KT) (MB)    (MI)
150E HAT   41001 2000            77 77  230/ 12/ 14 1014.5
W BERMUDA  41048 2000            76 76  280/ 10/ 12 1016.8
ATLANTIC S 41049 1950            78 78  210/ 12/ 14 1019.6F
WVE H/P(F/S)=  3/ 8 SWL H/P/D(F/S/D)=  3/170/ 8

E BAHAMAS  41046 2000            80 81   70/  2/  4 1018.8
NE BAHAMAS 41047 2000            79 79  250/ 12/ 16 1017.9
120E CANVRL41010 2000            80 80  210/  4/  6 1017.5

END



USA.gov is the U.S. government's official web portal to all federal, state and local government web resources and services.